Location: Kopernik Observatory
(42.0014°N, 76.0372°W)
Time: 05:32:41
(UTC-05:00)

Daily predictions for brighter satellites

Satellite Brightness Start Highest point End
(mag) Time Altitude Azimuth Time Altitude Azimuth Time Altitude Azimuth
USA 234 4.3 03:36:02 10° E 03:40:38 40° ENE 03:40:38 40° ENE
NOSS 3-4 (A) 4.1 04:09:37 63° SE 04:09:37 63° SE 04:15:48 10° SSE
NOSS 3-4 (C) 4.1 04:09:39 63° SE 04:09:39 63° SE 04:15:54 10° SE
Cosmos 2278 4.4 04:23:47 49° SE 04:23:47 49° SE 04:27:54 10° SSE
SJ 16-02 3.2 04:24:47 29° ESE 04:24:47 29° ESE 04:27:22 10° SE
Cosmos 1656 4.4 04:25:09 46° SE 04:25:09 46° SE 04:28:59 10° SSE
Lacrosse 5 rocket 3.3 04:25:25 31° E 04:25:25 31° E 04:28:07 10° ESE
Cosmos 44 4.5 04:42:41 32° NE 04:42:41 32° NE 04:45:09 10° NE
COSMO-SKYMED 1 3.7 04:45:45 10° SE 04:49:49 41° ENE 04:51:09 32° NNE
Cosmos 2082 Rocket 2.1 04:49:09 70° SSW 04:49:51 88° ESE 04:55:36 10° NNE
Cosmos 292 Rocket 4.3 04:50:59 52° NE 04:50:59 52° NE 04:54:38 10° NNE
USA 267 3.7 04:43:59 10° NE 04:49:50 44° NNW 04:49:50 44° NNW
Cosmos 1697 Rocket 2.7 04:50:51 64° N 04:51:42 79° ENE 04:57:18 10° SSE
USA 116 4.2 04:51:03 10° SSE 04:55:49 79° SSE 04:55:49 79° SSE
Cosmos 1833 Rocket 2.5 05:02:21 68° W 05:02:47 72° WNW 05:08:25 10° NNE
Cosmos 1634 Rocket 4.3 05:07:45 46° WSW 05:07:45 46° WSW 05:12:57 10° SSW
IDEFIX/ARIANE 42P 3.4 05:04:57 10° NNE 05:10:02 52° E 05:15:06 10° S
CZ-4B R/B 4.3 05:06:59 10° N 05:09:53 29° NNW 05:09:53 29° NNW
CZ-2C R/B 4.3 05:14:08 10° S 05:17:18 40° SW 05:17:18 40° SW
SKYMED 3 4.5 05:15:29 10° SSE 05:19:49 88° ENE 05:21:34 36° NNW
Meteor 2-20 4.4 05:15:11 10° S 05:21:17 85° E 05:27:24 10° N
USA 234 3.3 05:18:38 10° SSE 05:25:06 61° SW 05:27:59 34° WNW
Cosmos 1536 3.0 05:21:11 10° S 05:25:13 71° E 05:29:16 10° NNE
Cosmos 783 Rocket 4.4 05:20:25 10° SSW 05:25:42 77° WNW 05:31:03 10° NNE
Nadezhda 4 Rocket 4.1 05:20:20 10° S 05:26:27 74° E 05:32:34 10° N
Feng Yun 1-1 Rocket 4.2 05:22:06 10° NNE 05:27:59 82° WNW 05:33:42 10° SSW
Meteor 1-13 Rocket 4.2 05:23:11 14° NNW 05:28:23 71° W 05:34:18 10° S
SeaSat 1 3.6 05:24:34 10° N 05:27:29 27° NNW 05:27:29 27° NNW
Cosmos 1980 Rocket 2.1 05:27:02 24° NNW 05:30:36 87° WSW 05:36:17 10° SSE
Cosmos 1125 Rocket 3.9 05:30:39 39° W 05:30:44 39° WSW 05:35:31 10° S
Meteor 1-11 Rocket 3.7 05:26:18 10° SSW 05:32:16 79° W 05:38:11 10° N
SKYMED 2 3.6 05:33:33 10° S 05:37:49 58° W 05:39:46 30° NNW
Cosmos 44 Rocket 3.4 05:37:25 40° W 05:38:20 45° NW 05:42:54 10° NNE
Aureole 1 4.1 05:39:15 58° NNW 05:39:47 89° NW 05:43:07 10° SSE
Meteor 2-4 Rocket 3.5 05:36:33 10° NNW 05:41:54 69° W 05:47:22 10° S
Meteor 1-4 Rocket 4.3 05:39:21 10° SSE 05:42:49 36° E 05:46:21 10° NNE
Thor Agena Rocket 4.2 05:41:02 10° SSE 05:45:56 54° ENE 05:50:53 10° N
Cosmos 1515 4.3 05:46:54 10° N 05:50:40 57° E 05:54:26 10° SSE
CZ-4C R/B 2.5 05:46:33 10° SSW 05:51:38 67° ESE 05:57:28 10° NE
RESURS DK-1 2.3 05:52:21 26° NW 05:54:33 63° WSW 05:58:38 10° SSE
Cosmos 2151 Rocket 4.0 05:55:19 10° SW 05:59:23 38° WNW 06:03:31 10° N
Cosmos 1538 Rocket 3.9 05:54:47 10° SSW 05:59:59 86° WNW 06:05:18 10° NNE
CZ-4 R/B 3.7 05:56:49 10° NE 06:00:27 29° E 06:04:07 10° SSE
SJ 16-02 2.8 06:01:50 19° WSW 06:01:50 19° WSW 06:04:39 10° SW
Lacrosse 5 rocket 2.6 06:01:08 23° W 06:02:48 29° SW 06:06:41 10° S
Cosmos 2360 4.4 05:58:48 16° NW 06:03:13 51° WSW 06:08:42 10° S
Cosmos 1092 Rocket 3.9 05:57:19 10° S 06:03:28 83° W 06:09:39 10° N
SJ-12 3.8 06:00:20 10° NNE 06:04:26 86° WNW 06:08:29 10° SSW
CZ-2C R/B 2.3 06:00:21 10° N 06:05:13 64° WNW 06:09:54 10° SSW
SL-16 R/B 2.6 05:59:34 10° NNW 06:05:14 63° ENE 06:10:51 10° SE
Cosmos 1484 Rocket 3.6 06:02:58 10° NNE 06:06:50 54° E 06:10:36 10° S
GEOS 3 Rocket 3.6 06:02:55 10° NNE 06:08:21 79° NW 06:13:42 10° SW
SMAP 4.0 06:06:22 10° NNE 06:10:55 52° E 06:15:27 10° S
Okean-O 3.4 06:08:17 10° N 06:12:06 28° WNW 06:15:52 10° SW
EO 1 Del DPAF 4.4 06:10:30 10° SSW 06:13:34 23° W 06:14:55 19° WNW
Cosmos 2322 Rocket 2.5 06:08:02 10° NNW 06:13:43 72° ENE 06:19:23 10° SSE
ATLAS 5 CENTAUR R/B 4.5 06:12:28 10° N 06:14:26 12° NNE 06:16:28 10° NE
Okean 2 3.3 06:11:40 10° N 06:15:47 83° W 06:19:52 10° S
Cosmos 1300 Rocket 3.9 06:12:37 10° SSW 06:16:40 39° WNW 06:20:44 10° N
Meteor 1-5 Rocket 4.4 06:15:44 10° SSW 06:20:58 44° WNW 06:26:07 10° N
Cosmos 2026 Rocket 4.1 06:15:56 10° S 06:22:11 85° E 06:28:33 10° N
COSMO-SKYMED 1 4.1 06:23:11 10° SW 06:26:08 18° W 06:28:21 13° WNW
Cosmos 1437 Rocket 3.7 06:23:12 10° SW 06:26:33 26° WNW 06:29:52 10° NNW
AQUARIUS 4.4 06:22:26 10° NNE 06:26:58 76° ESE 06:31:27 10° S
CSL-04 Rocket 3.9 06:23:12 10° NNE 06:28:47 84° ESE 06:34:20 10° SSW
USA 267 4.4 06:26:58 10° NE 06:32:02 25° N 06:37:06 10° WNW
Cosmos 1025 Rocket 3.1 06:28:27 10° NNW 06:32:37 53° W 06:36:46 10° S
Cosmos 2082 Rocket 3.6 06:31:11 10° W 06:34:44 17° NW 06:38:18 10° N
Cosmos 1697 Rocket 4.3 06:32:38 11° WNW 06:34:53 14° W 06:37:38 10° SW
MSX 4.1 06:30:44 10° N 06:36:11 46° WNW 06:41:37 10° SW
Cosmos 1975 2.8 06:35:34 10° S 06:39:33 85° W 06:43:33 10° N
APEX 3.7 06:40:42 10° S 06:43:48 58° ESE 06:47:38 10° NNE
Okean 1 Rocket 3.8 06:40:41 10° SW 06:44:35 32° WNW 06:48:33 10° NNW
Cosmos 1833 Rocket 4.3 06:45:18 10° WNW 06:47:47 13° NW 06:50:16 10° NNW
Cosmos 1271 Rocket 3.8 06:45:21 10° S 06:49:00 49° E 06:52:40 10° NNE
IDEFIX/ARIANE 42P 3.7 06:45:27 10° NNW 06:49:15 21° WNW 06:53:04 10° WSW
Meteor 1-12 Rocket 4.4 06:44:58 10° S 06:50:43 88° E 06:56:25 10° N
Cosmos 1500 4.0 06:48:06 10° SW 06:51:35 31° WNW 06:55:03 10° NNW
Cosmos 389 Rocket 2.9 06:48:44 10° S 06:52:22 72° E 06:55:59 10° NNE
Cosmos 2333 Rocket 4.4 06:49:14 10° N 06:53:11 18° NE 06:57:06 10° E
COSMOS 2428 4.3 06:51:13 10° N 06:56:18 31° NE 07:01:21 10° ESE
